This is the latest recevied weather packets stored in our database for station/object F5OWB. If no packets are shown the sender has not sent any weather packets the latest 10 day(s).
| Time | Temp. | Humidity | Pressure | Rain* | Wind** | Luminosity | Snow |
|---|---|---|---|---|---|---|---|
| 1778156719 | 16.67° C | 59% | 1018.1 hPa | 0 mm | - | 817 W/m² | - |
| 1778156657 | 16.67° C | 61% | 1018.1 hPa | 0 mm | - | 823 W/m² | - |
| 1778156598 | 16.67° C | 60% | 1018.1 hPa | 0 mm | - | 831 W/m² | - |
| 1778156597 | 16.67° C | 60% | 1018.1 hPa | 0 mm | - | 831 W/m² | - |
| 1778156538 | 16.67° C | 60% | 1018.1 hPa | 0 mm | - | 844 W/m² | - |
| 1778156476 | 16.67° C | 60% | 1018.2 hPa | 0 mm | - | 856 W/m² | - |
| 1778156475 | 16.67° C | 60% | 1018.2 hPa | 0 mm | - | 856 W/m² | - |
| 1778156408 | 16.67° C | 59% | 1018.2 hPa | 0 mm | - | 877 W/m² | - |
| 1778156347 | 16.67° C | 63% | 1018.1 hPa | 0 mm | - | 877 W/m² | - |
| 1778156287 | 16.67° C | 60% | 1018.1 hPa | 0 mm | - | 877 W/m² | - |
| 1778156226 | 16.67° C | 61% | 1018.1 hPa | 0 mm | - | 863 W/m² | - |
| 1778156165 | 16.67° C | 63% | 1018.2 hPa | 0 mm | - | 865 W/m² | - |
| 1778156104 | 16.67° C | 62% | 1018.2 hPa | 0 mm | - | 865 W/m² | - |
| 1778156102 | 16.67° C | 62% | 1018.2 hPa | 0 mm | - | 865 W/m² | - |
| 1778156043 | 16.67° C | 61% | 1018.1 hPa | 0 mm | - | 860 W/m² | - |
| 1778155982 | 16.67° C | 64% | 1018.1 hPa | 0 mm | - | 858 W/m² | - |
| 1778155981 | 16.67° C | 64% | 1018.1 hPa | 0 mm | - | 858 W/m² | - |
| 1778155921 | 16.67° C | 63% | 1018.2 hPa | 0 mm | - | 867 W/m² | - |
| 1778155863 | 16.67° C | 65% | 1018.1 hPa | 0 mm | - | 874 W/m² | - |
| 1778155800 | 16.67° C | 63% | 1018.1 hPa | 0 mm | - | 879 W/m² | - |
| 1778155741 | 16.67° C | 64% | 1018.1 hPa | 0 mm | - | 893 W/m² | - |
| 1778155677 | 16.67° C | 63% | 1018.1 hPa | 0 mm | - | 900 W/m² | - |
| 1778155617 | 16.67° C | 63% | 1018.1 hPa | 0 mm | - | 807 W/m² | - |
| 1778155558 | 16.67° C | 64% | 1018.1 hPa | 0 mm | - | 807 W/m² | - |
| 1778155557 | 16.67° C | 64% | 1018.1 hPa | 0 mm | - | 807 W/m² | - |
* Rain latest hour (hover to see other rain measurements)
** Current wind speed in m/s (hover to see current wind gust speed)